DW8306 Weather Reports


time (UTC)temp
C
wind
direction
speed
KPH
gust
KPH
rain 1hr
cm
rain 24hr
cm
rain mn
cm
humidity
%
barometer
mb
20260505183015 27 183 0.0 6.4 0.00 0.00 0.00 74 1006.4
20260505181505 27 172 0.0 6.4 0.00 0.00 0.00 74 1006.5
20260505180104 26 186 0.0 8.0 0.00 0.00 0.00 76 1006.6
20260505174606 26 160 3.2 8.0 0.00 0.00 0.00 76 1006.7
20260505173019 25 142 0.0 8.0 0.00 0.00 0.00 78 1006.9
20260505171515 25 132 0.0 6.4 0.00 0.00 0.00 79 1007.0
20260505170016 24 161 0.0 3.2 0.00 0.00 0.00 81 1007.1
20260505164511 23 160 0.0 8.0 0.00 0.00 0.00 81 1007.2
20260505163108 23 137 0.0 6.4 0.00 0.00 0.00 82 1007.6
20260505161520 23 133 1.6 4.8 0.00 0.00 0.00 83 1007.5
20260505160117 23 166 0.0 6.4 0.00 0.00 0.00 83 1007.5
20260505153021 22 122 0.0 3.2 0.00 0.00 0.00 85 1007.3
20260505151619 22 164 0.0 3.2 0.00 0.00 0.00 86 1007.6
20260505150106 21 46 0.0 6.4 0.00 0.00 0.00 87 1007.4
20260505140120 21 197 0.0 0.0 0.00 0.00 0.00 88 1007.5
20260505124607 19 70 0.0 0.0 0.00 0.00 0.00 90 1007.3
20260505123011 19 70 0.0 0.0 0.00 0.00 0.00 90 1007.2
20260505121514 18 332 0.0 0.0 0.00 0.00 0.00 90 1006.9
20260505120116 18 332 0.0 0.0 0.00 0.00 0.00 91 1006.9
20260505114603 18 332 0.0 0.0 0.00 0.00 0.00 91 1006.9
20260505113105 18 318 0.0 0.0 0.00 0.00 0.00 91 1006.7
20260505111605 18 58 0.0 0.0 0.00 0.00 0.00 90 1006.7
20260505101508 18 74 0.0 0.0 0.00 0.00 0.00 88 1006.8
20260505100010 18 75 0.0 0.0 0.00 0.00 0.00 87 1006.9
20260505094609 18 74 0.0 0.0 0.00 0.00 0.00 87 1007.1
20260505093020 19 74 0.0 0.0 0.00 0.00 0.00 86 1007.5
20260505091518 19 74 0.0 3.2 0.00 0.00 0.00 86 1007.5
20260505090108 19 58 0.0 1.6 0.00 0.00 0.00 86 1007.5
20260505084511 19 29 0.0 0.0 0.00 0.00 0.00 85 1007.4
20260505083009 19 31 0.0 0.0 0.00 0.00 0.00 85 1007.5
20260505081510 19 12 0.0 0.0 0.00 0.00 0.00 85 1007.6
20260505080110 18 12 0.0 0.0 0.00 0.00 0.00 85 1007.9
20260505074520 18 12 0.0 0.0 0.00 0.00 0.00 85 1007.9
20260505073016 18 12 0.0 0.0 0.00 0.00 0.00 84 1007.9
20260505071620 19 12 0.0 0.0 0.00 0.00 0.00 82 1007.9
20260505070016 19 12 0.0 0.0 0.00 0.00 0.00 81 1008.4
20260505064517 20 33 0.0 0.0 0.00 0.00 0.00 81 1008.4
20260505063120 20 39 0.0 0.0 0.00 0.00 0.00 81 1008.5
20260505061506 20 29 0.0 0.0 0.00 0.00 0.00 80 1008.8
20260505060011 20 9 0.0 0.0 0.00 0.00 0.00 80 1008.9
20260505054610 20 25 0.0 0.0 0.00 0.00 0.00 80 1008.7
20260505053016 20 24 0.0 0.0 0.00 0.00 0.00 80 1008.8
20260505051603 20 11 0.0 1.6 0.00 0.00 0.00 80 1008.8
20260505041507 20 17 0.0 0.0 0.00 0.00 0.00 78 1009.1
20260505040015 20 17 0.0 0.0 0.00 0.00 0.00 78 1009.0
20260505034509 20 17 0.0 0.0 0.00 0.00 0.00 78 1009.2
20260505033019 20 17 0.0 1.6 0.00 0.00 0.00 77 1009.0
20260505031605 21 17 0.0 1.6 0.00 0.00 0.00 76 1009.0
20260505030007 21 17 0.0 0.0 0.00 0.00 0.00 75 1008.8
20260505024509 21 185 0.0 0.0 0.00 0.00 0.00 75 1008.8
20260505023118 21 205 0.0 0.0 0.00 0.00 0.00 74 1008.6
20260505021605 21 205 0.0 1.6 0.00 0.00 0.00 73 1008.4
20260505020107 21 199 0.0 1.6 0.00 0.00 0.00 72 1008.0
20260505014613 22 211 0.0 0.0 0.00 0.00 0.00 72 1008.3
20260505013023 22 211 0.0 0.0 0.00 0.00 0.00 70 1008.0
20260505011522 22 211 0.0 0.0 0.00 0.00 0.00 68 1007.8
20260505010006 23 210 0.0 1.6 0.00 0.00 0.00 65 1007.9
20260505004608 24 210 0.0 0.0 0.00 0.00 0.00 62 1008.0
20260505003009 25 210 0.0 1.6 0.00 0.00 0.00 60 1008.1
20260505001618 26 158 0.0 1.6 0.00 0.00 0.00 57 1008.3
20260505000021 26 158 0.0 1.6 0.00 0.00 0.00 56 1008.4
20260504234634 27 156 0.0 6.4 0.00 0.00 0.00 54 1008.6
20260504233108 27 317 1.6 6.4 0.00 0.00 0.00 52 1008.4
20260504231531 27 336 0.0 3.2 0.00 0.00 0.00 51 1008.6
20260504230011 27 160 0.0 3.2 0.00 0.00 0.00 50 1009.0
20260504224609 28 159 0.0 6.4 0.00 0.00 0.00 48 1009.2
20260504223011 28 153 0.0 6.4 0.00 0.00 0.00 47 1009.3
20260504221516 28 186 0.0 1.6 0.00 0.00 0.00 47 1009.6
20260504220012 28 134 0.0 4.8 0.00 0.00 0.00 47 1009.9
20260504214528 28 152 0.0 3.2 0.00 0.00 0.00 48 1010.0
20260504213019 28 122 0.0 3.2 0.00 0.00 0.00 46 1010.2
20260504211517 28 158 0.0 6.4 0.00 0.00 0.00 49 1010.5
20260504210107 28 200 0.0 3.2 0.00 0.00 0.00 49 1010.6
20260504204539 27 172 0.0 3.2 0.00 0.00 0.00 48 1011.1
20260504203014 27 231 0.0 6.4 0.00 0.00 0.00 50 1011.4
20260504201622 27 130 0.0 6.4 0.00 0.00 0.00 50 1011.7
20260504200015 27 162 0.0 6.4 0.00 0.00 0.00 50 1011.8
20260504194512 27 177 0.0 4.8 0.00 0.00 0.00 52 1012.2
20260504193110 27 178 1.6 6.4 0.00 0.00 0.00 51 1012.5
20260504191511 26 177 1.6 6.4 0.00 0.00 0.00 52 1012.9
20260504190009 27 131 0.0 4.8 0.00 0.00 0.00 53 1013.1
20260504184609 26 169 0.0 3.2 0.00 0.00 0.00 53 1013.2